CAPE
0 0 0 0 0 0 0 0 0 0 0 0 0 0 0 0 0 0 0 0 0 0 0 0 0 0 0 0 0 0 0 0
0 0 0 0 0 0 0 0 0 0 0 0 0 0 0 0 0 0 0 0 0 0 0 0 0 0 0 0 0 0 0 0
0 0 0 0 0 0 0 0 0 0 0 0 0 0 0 0 0 0 0 0 0 0 0 0 0 0 0 0 0 0 0 0
0 0 0 0 0 0 0 0 0 0 0 0 0 0 0 0 0 0 0 0 0 0 0 0 0 0 0 0 0 0 0 0
0 0 0 0 0 0 0 0 0 0 0 0 0 0 0 0 0 0 0 0 0 0 0 0 0 0 0 0 0 0 0 0
0 0 0 0 0 0 0 0 0 0 0 0 0 0 0 0 0 0 0 0 0 0 0 0 0 0 0 0 0 0 0 0
0 0 0 0 0 0 0 0 0 0 0 0 0 0 0 0 0 0 0 0 0 0 0 0 0 0 0 0 0 0 0 0
0 0 0 0 0 0 0 0 0 0 0 0 0 0 0 0 0 0 0 0 0 0 0 0 0 0 0 0 0 0 0 0
0 0 0 0 0 0 0 0 0 0 0 0 0 0 0 0 0 0 0 0 0 0 0 0 0 0 0 0 0 0 0 0
0 0 0 0 0 0 0 0 0 0 0 0 0 0 0 0 0 0 0 0 0 0 0 0 0 0 0 0 0 0 0 0
0 0 0 0 0 0 0 0 0 0 0 0 0 0 0 0 0 0 0 0 0 0 0 0 0 0 0 0 0 0 0 0
0 0 0 0 0 0 0 0 0 0 0 0 0 0 0 0 0 0 0 0 0 0 0 0 0 0 0 0 0 0 0 0
0 0 0 0 0 0 0 0 0 0 0 0 0 0 0 0 0 0 0 0 0 0 0 0 0 0 0 0 0 1 0 0
0 0 0 0 0 0 0 0 0 0 0 0 0 0 0 0 0 0 0 0 0 0 0 0 0 0 0 0 1 0 0 0
0 0 0 0 0 0 0 0 0 0 0 0 0 0 0 0 0 0 0 0 0 0 0 0 0 0 0 0 0 0 0 0
0 0 0 0 0 0 0 0 0 0 0 0 0 0 0 0 0 0 0 0 0 0 0 0 0 0 0 0 0 0 0 0
0 0 0 0 0 0 0 0 0 0 0 0 0 0 0 0 0 0 0 0 0 0 0 0 0 0 0 0 1 0 0 0
0 0 0 0 0 0 0 0 0 0 0 0 0 0 0 0 0 0 0 0 0 0 0 0 0 0 0 0 0 0 0 0
0 0 0 0 0 0 0 0 0 0 0 0 0 0 0 0 0 0 0 0 0 0 0 0 0 0 0 0 0 0 0 0
0 0 0 0 0 0 0 0 0 0 0 0 0 0 0 0 0 0 0 0 0 0 0 0 0 0 0 0 0 0 0 0
CIN
-0 -0 -0 -0 -0 -0 -0 -0 -0 -0 -0 -0 -0 -0 -0 -0 -0 -0 -0 -0 -0 -0 -0 -0 -0 -0 -0 -0 -0 -0 -0 -0
-0 -0 -0 -0 -0 -0 -0 -0 -0 -0 -0 -0 -0 -0 -0 -0 -0 -0 -0 -0 -0 -0 -0 -0 -0 -0 -0 -0 -0 -0 -0 -0
-0 -0 -0 -0 -0 -0 -0 -0 -0 -0 -0 -0 -0 -0 -0 -0 -0 -0 -0 -0 -0 -0 -0 -0 -0 -0 -0 -0 -0 -0 -0 -0
-0 -0 -0 -0 -0 -0 -0 -0 -0 -0 -0 -0 -0 -0 -0 -0 -0 -0 -0 -0 -0 -0 -0 -0 -0 -0 -0 -0 -0 -0 -0 -0
-0 -0 -0 -0 -0 -0 -0 -0 -0 -0 -0 -0 -0 -0 -0 -0 -0 -0 -0 -0 -0 -0 -0 -0 -0 -0 -0 -0 -0 -0 -0 -0
-0 -0 -0 -0 -0 -0 -0 -0 -0 -0 -0 -0 -0 -0 -0 -0 -0 -0 -0 -0 -0 -0 -0 -0 -0 -0 -0 -0 -0 -0 -0 -0
-0 -0 -0 -0 -0 -0 -0 -0 -0 -0 -0 -0 -0 -0 -0 -0 -0 -0 -0 -0 -0 -0 -0 -0 -0 -0 -0 -0 -0 -0 -0 -0
-0 -0 -0 -0 -0 -0 -0 -0 -0 -0 -0 -0 -0 -0 -0 -0 -0 -0 -0 -0 -0 -0 -0 -0 -0 -0 -0 -0 -0 -0 -0 -0
-0 -0 -0 -0 -0 -0 -0 -0 -0 -0 -0 -0 -0 -0 -0 -0 -0 -0 -0 -0 -0 -0 -0 -0 -0 -0 -0 -0 -0 -0 -0 -0
-0 -0 -0 -0 -0 -0 -0 -0 -0 -0 -0 -0 -0 -0 -0 -0 -0 -0 -0 -0 -0 -0 -0 -0 -0 -0 -0 -0 -0 -0 -0 -0
-0 -0 -0 -0 -0 -0 -0 -0 -0 -0 -0 -0 -0 -0 -0 -0 -0 -0 -0 -0 -0 -0 -0 -0 -0 -0 -0 -0 -0 -0 -0 -0
-0 -0 -0 -0 -0 -0 -0 -0 -0 -0 -0 -0 -0 -0 -0 -0 -0 -0 -0 -0 -0 -0 -0 -0 -0 -0 -0 -0 -0 -0 -0 -0
-0 -0 -0 -0 -0 -0 -0 -0 -0 -0 -0 -0 -0 -0 -0 -0 -0 -0 -0 -0 -0 -0 -0 -0 -0 -0 -0 -0 -0 -1 -0 -0
-0 -0 -0 -0 -0 -0 -0 -0 -0 -0 -0 -0 -0 -0 -0 -0 -0 -0 -0 -0 -0 -0 -0 -0 -0 -0 -0 -0 -0 -0 -0 -0
-0 -0 -0 -0 -0 -0 -0 -0 -0 -0 -0 -0 -0 -0 -0 -0 -0 -0 -0 -0 -0 -0 -0 -0 -0 -0 -0 -0 -0 -0 -0 -0
-0 -0 -0 -0 -0 -0 -0 -0 -0 -0 -0 -0 -0 -0 -0 -0 -0 -0 -0 -0 -0 -0 -0 -0 -0 -0 -0 -0 -0 -1 -0 -0
-0 -0 -0 -0 -0 -0 -0 -0 -0 -0 -0 -0 -0 -0 -0 -0 -0 -0 -0 -0 -0 -0 -0 -0 -0 -0 -0 -0 -1 -0 -0 -0
-0 -0 -0 -0 -0 -0 -0 -0 -0 -0 -0 -0 -0 -0 -0 -0 -0 -0 -0 -0 -0 -0 -0 -0 -0 -0 -0 -0 -0 -0 -0 -0
-0 -0 -0 -0 -0 -0 -0 -0 -0 -0 -0 -0 -0 -0 -0 -0 -0 -0 -0 -0 -0 -0 -0 -0 -0 -0 -0 -0 -0 -0 -0 -0
-0 -0 -0 -0 -0 -0 -0 -0 -0 -0 -0 -0 -0 -0 -0 -0 -0 -0 -0 -0 -0 -0 -0 -0 -0 -0 -0 -0 -0 -0 -0 -0
Wind_Speed
15 15 18 19 18 18 20 20 20 19 19 18 17 17 17 16 17 17 17 17 18 20 22 24 26 27 29 31 32 33 34 35
23 24 21 21 20 20 21 23 22 22 21 19 18 17 17 18 17 18 17 18 19 20 23 25 26 28 29 31 33 35 36 37
26 25 24 22 22 23 23 23 23 23 21 20 19 19 19 18 17 17 18 19 20 21 23 25 26 27 29 32 33 34 36 37
31 28 26 26 26 25 25 25 24 22 22 22 22 20 20 19 19 18 19 19 20 21 24 25 26 28 29 31 33 34 35 37
32 28 28 27 27 26 26 24 23 22 22 23 22 22 20 19 19 18 18 19 20 22 23 24 26 28 29 30 32 35 37 38
42 38 34 32 30 28 26 23 22 22 22 23 21 20 19 19 19 19 19 20 21 22 23 24 25 27 28 29 33 36 39 39
43 40 35 33 31 29 27 24 21 21 21 19 19 18 18 18 18 18 18 19 20 20 21 23 25 27 27 29 33 36 40 42
46 43 38 32 29 27 24 20 19 19 18 19 17 18 18 17 17 18 18 18 21 22 24 26 26 26 28 30 35 38 40 42
46 42 34 29 24 20 18 18 18 19 18 16 16 17 17 17 18 18 19 21 22 24 24 25 26 27 29 32 35 37 39 41
40 34 30 25 21 18 18 18 18 19 19 16 16 17 17 17 16 16 18 19 19 20 23 24 24 26 29 33 35 38 39 42
33 28 27 25 20 20 20 21 20 19 17 16 16 17 16 14 15 15 17 19 20 21 20 22 25 27 29 33 35 39 41 41
31 31 30 25 22 24 24 24 22 18 16 15 15 16 16 15 16 16 17 20 21 20 20 21 23 25 28 31 35 39 41 44
33 33 29 25 25 27 27 24 21 18 17 17 15 15 14 14 15 16 16 17 19 20 20 20 21 23 27 30 34 38 43 45
37 34 31 28 27 30 29 25 23 21 20 17 14 14 14 15 15 16 18 18 18 18 18 18 19 22 26 30 34 39 42 43
37 37 35 30 31 33 29 25 25 24 23 20 18 16 16 16 16 16 18 18 18 17 16 17 18 21 24 28 33 37 40 43
42 43 41 35 37 35 31 28 27 25 25 26 24 21 18 17 18 17 17 16 17 15 17 17 19 21 25 30 34 37 40 42
50 48 46 41 40 39 36 33 32 32 29 27 27 25 21 19 18 16 14 14 12 12 13 14 17 21 25 29 33 36 39 41
56 52 50 46 44 43 41 40 39 36 32 29 27 26 23 20 18 19 14 12 11 10 10 13 17 20 24 28 32 34 37 42
59 58 55 51 50 45 42 41 42 37 33 31 30 28 25 22 19 17 16 14 11 8 8 12 16 19 22 27 30 35 38 42
68 66 60 56 53 45 42 42 40 38 36 32 29 25 22 20 18 15 14 14 10 7 7 12 15 17 22 25 31 35 40 42
Wind_Direction
304 296 288 288 282 271 268 267 266 268 276 281 281 283 281 278 275 277 282 286 291 298 303 307 310 313 315 317 319 319 320 320
299 295 290 288 285 276 272 271 267 269 274 279 279 281 280 277 275 275 280 284 289 296 301 305 309 313 315 317 318 318 319 319
300 293 290 285 285 279 277 273 271 271 272 273 279 281 278 275 274 276 280 286 290 296 300 305 309 312 314 316 317 318 319 321
299 293 289 288 286 283 279 276 275 272 270 274 275 277 276 275 274 276 279 284 290 294 298 303 308 312 315 317 318 319 320 321
297 293 292 290 287 285 281 278 275 272 271 272 274 277 278 276 274 274 278 283 288 294 298 303 308 312 315 318 319 320 321 322
295 294 291 290 289 287 284 278 275 274 273 275 277 278 277 273 272 274 278 284 290 294 299 305 310 313 316 319 319 320 322 323
296 295 293 290 288 286 284 279 272 272 273 275 278 276 274 271 270 271 277 283 288 294 299 305 310 313 316 319 321 323 323 324
298 294 295 293 289 285 283 280 273 271 273 274 272 273 273 271 270 273 276 283 289 294 298 304 308 313 316 319 322 323 324 325
298 294 296 295 290 289 285 278 275 275 274 272 271 273 274 271 274 279 283 286 290 294 299 304 309 313 316 320 322 323 325 326
300 295 293 291 287 283 282 282 279 274 274 269 271 274 273 273 274 279 284 290 294 298 300 304 309 314 317 320 322 324 326 328
303 299 295 291 285 280 280 278 276 277 277 272 271 271 265 267 276 284 286 292 297 299 302 305 309 315 318 321 323 325 328 330
296 296 293 287 284 283 280 275 278 279 280 275 267 265 265 273 285 286 290 295 296 300 305 308 312 317 320 324 326 328 330 331
296 298 295 289 283 283 282 283 281 280 279 278 268 264 261 271 285 288 294 296 298 302 306 311 316 320 324 327 329 331 332 332
297 297 295 290 284 282 285 281 279 277 278 273 265 259 261 269 277 284 293 295 294 299 305 312 320 325 328 330 333 335 334 335
297 294 295 291 286 285 284 280 278 278 277 273 265 259 263 272 272 282 286 287 291 294 303 315 325 328 333 334 336 338 339 339
293 292 292 289 283 282 278 276 276 276 275 271 268 262 264 271 269 279 284 285 287 289 300 312 323 329 334 336 339 341 342 343
289 290 290 287 281 276 272 270 272 275 272 267 262 259 262 266 275 281 281 283 289 294 307 320 326 332 336 341 344 345 347 348
288 290 289 285 282 276 271 269 269 270 267 263 257 257 262 263 260 265 274 276 279 295 309 323 330 336 341 345 349 350 352 351
290 289 289 287 283 278 273 270 268 267 262 259 252 252 254 255 255 255 253 253 265 291 311 327 332 338 345 350 353 350 354 352
288 288 289 286 282 276 271 268 265 264 260 252 248 249 245 246 247 245 248 255 267 284 308 328 336 343 349 353 351 351 352 353